Regional Weather Roundup
Issued by NWS

Home | Current Version | Previous Version | Graphics & Text | Print | Product List | Glossary On
Versions: 1 2 3 4 5 6 7 8 9 10 11 12 13 14 15 16 17 18 19 20 21 22 23 24 25 26 27 28 29 30 31 32 33 34 35 36 37 38 39 40 41 42 43 44 45 46 47 48 49 50
000
ASUS43 KOAX 251310
RWRNE

WEATHER ROUNDUP FOR NEBRASKA
NATIONAL WEATHER SERVICE OMAHA NE
800 AM CDT FRI JUL 25 2014

NOTES: SATELLITE DATA IS BEING USED TO AUGMENT CLOUD COVER ABOVE
       12000 FEET.
       "FAIR" INDICATES FEW OR NO CLOUDS BELOW 12,000 FEET WITH NO
       SIGNIFICANT WEATHER AND/OR OBSTRUCTIONS TO VISIBILITY.

  * THESE STATIONS DO NOT REPORT WEATHER SUCH AS RAIN...SNOW OR FOG.

NEZ001>004-019>022-054>056-251400-
NEBRASKA PANHANDLE

CITY           SKY/WX    TMP DP  RH WIND       PRES   REMARKS
SCOTTSBLUFF    SUNNY     66  57  72 W10       30.03R
ALLIANCE         N/A     66  52  60 N20G25    29.99R
CHADRON        SUNNY     68  54  60 NE5       30.00R
KIMBALL        MOSUNNY   67  49  51 N12       30.05R
SIDNEY         SUNNY     69  51  52 NW14      30.01R
$$

NEZ057>060-069>072-079>082-251400-
SOUTHWEST NEBRASKA

CITY           SKY/WX    TMP DP  RH WIND       PRES   REMARKS
NORTH PLATTE   SUNNY     70  62  76 NW6       29.85R
IMPERIAL       SUNNY     69  58  67 W6        29.89R
LEXINGTON      SUNNY     74  63  67 W5        29.81R
MCCOOK         SUNNY     70  59  68 SW8       29.83S
OGALLALA       SUNNY     70  57  63 NW6       29.89R
$$

NEZ005>010-023>029-035>040-094-251400-
NORTH CENTRAL NEBRASKA

CITY           SKY/WX    TMP DP  RH WIND       PRES   REMARKS
VALENTINE      MOSUNNY   71  63  75 NW15      29.86R
AINSWORTH      SUNNY     71  63  74 NW14G25   29.82R
BROKEN BOW     SUNNY     75  67  76 W8        29.78R
O`NEILL        SUNNY     73  67  83 CALM      29.75S
ORD            SUNNY     70  68  93 VRB3      29.74R
THEDFORD       SUNNY     71  64  78 NW14G20   29.86R
$$

NEZ041-046>049-061>064-073>077-083>087-251400-
SOUTH CENTRAL NEBRASKA

CITY           SKY/WX    TMP DP  RH WIND       PRES   REMARKS
GRAND ISLAND   SUNNY     82  67  60 SW16      29.76R
AURORA         MOSUNNY   79  71  75 SW13      29.76S
HASTINGS       MOSUNNY   78  65  63 SW10G21   29.78R
HEBRON         MOSUNNY   79  67  66 SW13G25   29.77R
HOLDREGE       SUNNY     76  60  56 SW7       29.81S
KEARNEY *      SUNNY     75  61  60 S14       29.79R
YORK           MOSUNNY   77  72  83 SW15      29.75S
$$

NEZ011>018-030>034-042>045-251400-
NORTHEAST NEBRASKA

CITY           SKY/WX    TMP DP  RH WIND       PRES   REMARKS
NORFOLK        SUNNY     75  69  81 SE9       29.75R
ALBION         SUNNY     73  68  84 SE5       29.73S
BLAIR          PTSUNNY   72  64  75 E15       29.81R
COLUMBUS *     SUNNY     55 N/A N/A S7        29.74S
FREMONT        MOSUNNY   76  69  79 NE6       29.80R
WAYNE          MOSUNNY   75  70  84 E12G17    29.79S
$$

NEZ050>053-065>068-078-088>093-251400-
SOUTHEAST NEBRASKA

CITY           SKY/WX    TMP DP  RH WIND       PRES   REMARKS
LINCOLN        SUNNY     76  70  82 S12       29.75F
OMAHA EPPLEY   PTSUNNY   73  62  68 SE15      29.81R
BEATRICE       SUNNY     79  71  76 S10       29.79R
FALLS CITY     CLOUDY    74  69  85 S12       29.81F
NEBRASKA CITY  PTSUNNY   71  65  80 S8        29.80S
PLATTSMOUTH    PTSUNNY   71  63  75 SE13      29.80S
$$

NEZ044-045-051>053-067-251400-
OMAHA AREA

CITY           SKY/WX    TMP DP  RH WIND       PRES   REMARKS
OMAHA EPPLEY   PTSUNNY   73  62  68 SE15      29.81R
BLAIR          PTSUNNY   72  64  75 E15       29.81R
FREMONT        MOSUNNY   76  69  79 NE6       29.80R
MILLARD        PTSUNNY   74  65  75 SE7       29.79R
OFFUTT AFB     PTSUNNY   71  66  84 E12       29.80R
PLATTSMOUTH    PTSUNNY   71  63  75 SE13      29.80S
WAHOO          FAIR      74  68  82 SE8       29.76R
$$



USA.gov is the U.S. government's official web portal to all federal, state and local government web resources and services.